When you browse on this site, cookies collect data to enhance your experience and personalize the content and advertising you see.
Visit our Privacy Policy to learn more. By continuing to use the site, you agree to this use of cookies and data.
  • în România
  • Lista ţărilor
  • Pe 7 zile
  • Temperatura apei
  • Hartă satelitară
  • Meteo pe hartă
  • Widget-uri
  • user-avatar
    Intrare

    Meteo pe oră la Santiago del Estero

    Astăzi, 26 Mai, Duminică

    Timp Temperatura Precipitaţii Vânt Presiune Umiditate
    00:00 +14°C° 0 mm 3 m/s 739 mmHg 61%
    01:00 +13°C° 0 mm 3 m/s 739 mmHg 64%
    02:00 +12°C° 0 mm 3 m/s 738 mmHg 66%
    03:00 +12°C° 0 mm 3 m/s 738 mmHg 70%
    04:00 +11°C° 0 mm 3 m/s 738 mmHg 74%
    05:00 +12°C° 0 mm 2 m/s 738 mmHg 77%
    06:00 +12°C° 0 mm 2 m/s 738 mmHg 77%
    07:00 +12°C° 0 mm 2 m/s 739 mmHg 78%
    08:00 +13°C° 0 mm 2 m/s 739 mmHg 78%
    09:00 +15°C° 0 mm 2 m/s 739 mmHg 70%
    10:00 +17°C° 0 mm 2 m/s 739 mmHg 62%
    11:00 +19°C° 0 mm 2 m/s 739 mmHg 53%
    12:00 +21°C° 0 mm 2 m/s 739 mmHg 50%
    13:00 +23°C° 0 mm 1 m/s 739 mmHg 46%
    14:00 +24°C° 0 mm 1 m/s 739 mmHg 42%
    15:00 +24°C° 0 mm 1 m/s 739 mmHg 46%
    16:00 +23°C° 0 mm 1 m/s 739 mmHg 49%
    17:00 +22°C° 0 mm 1 m/s 739 mmHg 52%
    18:00 +21°C° 0 mm 1 m/s 739 mmHg 56%
    19:00 +19°C° 0 mm 1 m/s 740 mmHg 60%
    20:00 +18°C° 0 mm 1 m/s 741 mmHg 64%
    21:00 +16°C° 0 mm 1 m/s 741 mmHg 65%
    22:00 +16°C° 0 mm 2 m/s 741 mmHg 66%
    23:00 +16°C° 0 mm 2 m/s 741 mmHg 67%

    Mâine, 27 Mai, Luni

    Timp Temperatura Precipitaţii Vânt Presiune Umiditate
    00:00 +16°C° 0 mm 2 m/s 741 mmHg 67%
    01:00 +15°C° 0 mm 2 m/s 741 mmHg 68%
    02:00 +15°C° 0 mm 2 m/s 741 mmHg 68%
    03:00 +15°C° 0 mm 2 m/s 741 mmHg 68%
    04:00 +15°C° 0 mm 2 m/s 741 mmHg 67%
    05:00 +14°C° 0 mm 3 m/s 741 mmHg 67%
    06:00 +14°C° 0 mm 3 m/s 741 mmHg 68%
    07:00 +15°C° 0 mm 2 m/s 741 mmHg 69%
    08:00 +15°C° 0 mm 2 m/s 742 mmHg 70%
    09:00 +17°C° 0 mm 2 m/s 742 mmHg 64%
    10:00 +19°C° 0 mm 2 m/s 742 mmHg 59%
    11:00 +21°C° 0 mm 3 m/s 742 mmHg 53%
    12:00 +22°C° 0 mm 3 m/s 741 mmHg 51%
    13:00 +24°C° 0 mm 3 m/s 740 mmHg 48%
    14:00 +25°C° 0 mm 3 m/s 740 mmHg 46%
    15:00 +24°C° 0 mm 3 m/s 740 mmHg 48%
    16:00 +22°C° 0 mm 3 m/s 740 mmHg 50%
    17:00 +21°C° 0 mm 3 m/s 739 mmHg 52%
    18:00 +20°C° 0 mm 3 m/s 740 mmHg 56%
    19:00 +19°C° 0 mm 2 m/s 741 mmHg 60%
    20:00 +17°C° 0 mm 2 m/s 741 mmHg 64%
    21:00 +16°C° 0 mm 2 m/s 742 mmHg 68%
    22:00 +16°C° 0 mm 2 m/s 742 mmHg 71%
    23:00 +15°C° 0 mm 1 m/s 742 mmHg 74%

    Poimâine, 28 Mai, Marţi

    Timp Temperatura Precipitaţii Vânt Presiune Umiditate
    00:00 +14°C° 0 mm 1 m/s 742 mmHg 77%
    01:00 +14°C° 0 mm 1 m/s 742 mmHg 79%
    02:00 +13°C° 0 mm 1 m/s 742 mmHg 82%
    03:00 +13°C° 0 mm 1 m/s 741 mmHg 84%
    04:00 +13°C° 0 mm 1 m/s 741 mmHg 86%
    05:00 +13°C° 0 mm 2 m/s 741 mmHg 88%
    06:00 +13°C° 0 mm 2 m/s 742 mmHg 87%
    07:00 +13°C° 0 mm 2 m/s 743 mmHg 87%
    08:00 +14°C° 0 mm 2 m/s 743 mmHg 86%
    09:00 +16°C° 0 mm 2 m/s 743 mmHg 80%
    10:00 +18°C° 0 mm 2 m/s 743 mmHg 74%
    11:00 +21°C° 0 mm 1 m/s 744 mmHg 68%
    12:00 +21°C° 0 mm 2 m/s 743 mmHg 64%
    13:00 +23°C° 0 mm 2 m/s 742 mmHg 59%
    14:00 +24°C° 0 mm 2 m/s 741 mmHg 54%
    15:00 +23°C° 0 mm 2 m/s 741 mmHg 56%
    16:00 +23°C° 0 mm 2 m/s 741 mmHg 58%
    17:00 +22°C° 0 mm 1 m/s 741 mmHg 59%
    18:00 +21°C° 0 mm 1 m/s 741 mmHg 64%
    19:00 +20°C° 0 mm 1 m/s 741 mmHg 69%
    20:00 +18°C° 0 mm 1 m/s 742 mmHg 73%
    21:00 +18°C° 0 mm 1 m/s 742 mmHg 78%
    22:00 +16°C° 0 mm 1 m/s 742 mmHg 82%
    23:00 +16°C° 0 mm 2 m/s 742 mmHg 87%

    29 Mai, Miercuri

    Timp Temperatura Precipitaţii Vânt Presiune Umiditate
    00:00 +16°C° 0 mm 2 m/s 742 mmHg 88%
    01:00 +16°C° 0 mm 2 m/s 742 mmHg 89%
    02:00 +16°C° 0 mm 2 m/s 742 mmHg 90%
    03:00 +16°C° 0 mm 2 m/s 742 mmHg 90%
    04:00 +16°C° 0 mm 2 m/s 741 mmHg 90%
    05:00 +16°C° 0 mm 2 m/s 741 mmHg 90%
    06:00 +16°C° 0 mm 2 m/s 741 mmHg 90%
    07:00 +16°C° 0 mm 2 m/s 742 mmHg 90%
    08:00 +16°C° 0 mm 2 m/s 742 mmHg 90%
    09:00 +17°C° 0 mm 2 m/s 742 mmHg 84%
    10:00 +19°C° 0 mm 3 m/s 742 mmHg 77%
    11:00 +20°C° 0 mm 3 m/s 742 mmHg 71%
    12:00 +20°C° 0 mm 3 m/s 741 mmHg 71%
    13:00 +20°C° 0 mm 3 m/s 740 mmHg 70%
    14:00 +21°C° 0 mm 3 m/s 739 mmHg 70%
    15:00 +20°C° 0 mm 3 m/s 739 mmHg 73%
    16:00 +20°C° 0 mm 3 m/s 739 mmHg 76%
    17:00 +19°C° 0 mm 3 m/s 739 mmHg 78%
    18:00 +19°C° 0 mm 3 m/s 739 mmHg 80%
    19:00 +18°C° 0 mm 3 m/s 740 mmHg 82%
    20:00 +18°C° 0 mm 3 m/s 740 mmHg 84%
    21:00 +18°C° 0 mm 3 m/s 741 mmHg 85%
    22:00 +18°C° 0 mm 3 m/s 741 mmHg 86%
    23:00 +18°C° 0 mm 3 m/s 741 mmHg 86%

    30 Mai, Joi

    Timp Temperatura Precipitaţii Vânt Presiune Umiditate
    00:00 +17°C° 0 mm 3 m/s 741 mmHg 88%
    01:00 +17°C° 0 mm 2 m/s 741 mmHg 89%
    02:00 +16°C° 0 mm 2 m/s 740 mmHg 91%
    03:00 +16°C° 0 mm 2 m/s 740 mmHg 90%
    04:00 +17°C° 0 mm 2 m/s 741 mmHg 90%
    05:00 +17°C° 0 mm 2 m/s 741 mmHg 89%
    06:00 +17°C° 0 mm 2 m/s 741 mmHg 89%
    07:00 +17°C° 0 mm 2 m/s 742 mmHg 89%
    08:00 +17°C° 0 mm 2 m/s 742 mmHg 89%
    09:00 +18°C° 0 mm 2 m/s 743 mmHg 82%
    10:00 +20°C° 0 mm 3 m/s 743 mmHg 75%
    11:00 +21°C° 0 mm 3 m/s 743 mmHg 69%
    12:00 +22°C° 0 mm 3 m/s 743 mmHg 64%
    13:00 +24°C° 0 mm 3 m/s 742 mmHg 60%
    14:00 +24°C° 0 mm 3 m/s 742 mmHg 56%
    15:00 +24°C° 0 mm 3 m/s 742 mmHg 58%
    16:00 +22°C° 0 mm 3 m/s 742 mmHg 60%
    17:00 +22°C° 0 mm 3 m/s 742 mmHg 62%
    18:00 +20°C° 0 mm 3 m/s 742 mmHg 66%
    19:00 +19°C° 0 mm 2 m/s 743 mmHg 71%
    20:00 +18°C° 0 mm 2 m/s 743 mmHg 75%
    21:00 +18°C° 0 mm 2 m/s 743 mmHg 77%
    22:00 +17°C° 0 mm 2 m/s 743 mmHg 80%
    23:00 +17°C° 0 mm 2 m/s 743 mmHg 82%

    31 Mai, Vineri

    Timp Temperatura Precipitaţii Vânt Presiune Umiditate
    00:00 +17°C° 0 mm 3 m/s 743 mmHg 83%
    01:00 +17°C° 0 mm 3 m/s 743 mmHg 84%
    02:00 +17°C° 0 mm 4 m/s 742 mmHg 85%
    03:00 +15°C° 0 mm 4 m/s 742 mmHg 88%
    04:00 +14°C° 0 mm 3 m/s 742 mmHg 91%
    05:00 +13°C° 0 mm 3 m/s 741 mmHg 93%
    06:00 +13°C° 0 mm 3 m/s 741 mmHg 91%
    07:00 +13°C° 0 mm 3 m/s 742 mmHg 89%
    08:00 +13°C° 0 mm 3 m/s 742 mmHg 87%
    09:00 +14°C° 0 mm 3 m/s 742 mmHg 84%
    10:00 +16°C° 0 mm 3 m/s 742 mmHg 81%
    11:00 +16°C° 0 mm 3 m/s 742 mmHg 78%
    12:00 +17°C° 0 mm 2 m/s 741 mmHg 74%
    13:00 +18°C° 0 mm 2 m/s 740 mmHg 69%
    14:00 +19°C° 0 mm 2 m/s 739 mmHg 65%
    15:00 +19°C° 0 mm 2 m/s 739 mmHg 65%
    16:00 +19°C° 0 mm 2 m/s 739 mmHg 66%
    17:00 +19°C° 0 mm 3 m/s 739 mmHg 66%
    18:00 +18°C° 0 mm 3 m/s 739 mmHg 70%
    19:00 +16°C° 0 mm 3 m/s 739 mmHg 75%
    20:00 +14°C° 0 mm 3 m/s 740 mmHg 80%
    21:00 +14°C° 0 mm 3 m/s 740 mmHg 82%
    22:00 +14°C° 0 mm 2 m/s 740 mmHg 83%
    23:00 +14°C° 0 mm 2 m/s 741 mmHg 84%
    Arată mai mult